^^
Station Historical Data
 
Daily Summary for August 21, 2018 Units:  Metric    English   Both
« Previous Day
Next Day »
Daily Weekly Monthly Yearly Custom
  Current: High: Low: Average:
Temperature: 12.9 °C -17.8 °C 8.9 °C 11.1 °C
Dew Point: 4.3 °C -17.8 °C 4.2 °C 6.6 °C
Humidity: 56% Humidity% 52% 75%
Wind Speed: 11.1km/h 0km/h 6.4km/h 15.4km/h
Wind Gust: 19.3km/h 0km/h - -
WindSouth - - South
Pressure: 1020.9 hPa 0 hPa 1018.8 hPa -
Precipitation: 0 mm      
Historical Graphs
 
 
Tabular Data for August 21, 2018
Time Temperature Dew Point Pressure Wind Wind Speed Wind Gust Humidity Rainfall Rate (Hourly) solar Conditions
-17.8 °C -17.8 °C 0 hPa Calm     Humidity% 0 mm SolarRadiationWatts/m^2 W/m2 Conditions
00:03 9.9 °C 6.1 °C 1019.9 hPa SSW 11.1 km/h 16.1 km/h 77% 0 mm 0.00 W/m2
00:09 9.9 °C 6.2 °C 1019.9 hPa SSW 13 km/h 17.7 km/h 78% 0 mm 0.00 W/m2
00:14 9.9 °C 6.2 °C 1019.9 hPa SSW 14.3 km/h 17.7 km/h 78% 0 mm 0.00 W/m2
00:18 9.8 °C 6.1 °C 1019.9 hPa SSW 9.7 km/h 16.1 km/h 78% 0 mm 0.00 W/m2
00:24 9.8 °C 6.3 °C 1019.9 hPa SSW 14.3 km/h 19.3 km/h 79% 0 mm 0.00 W/m2
00:28 9.8 °C 6.3 °C 1019.9 hPa SSW 11.1 km/h 20.9 km/h 79% 0 mm 0.00 W/m2
00:34 9.8 °C 6.3 °C 1019.9 hPa SSW 16.3 km/h 19.3 km/h 79% 0 mm 0.00 W/m2
00:38 9.7 °C 6.4 °C 1019.9 hPa SSW 13 km/h 19.3 km/h 80% 0 mm 0.00 W/m2
00:44 9.7 °C 6.4 °C 1019.9 hPa South 14.3 km/h 20.9 km/h 80% 0 mm 0.00 W/m2
00:48 9.7 °C 6.4 °C 1019.9 hPa SSW 19.5 km/h 22.5 km/h 80% 0 mm 0.00 W/m2
00:54 9.6 °C 6.5 °C 1019.9 hPa SSW 19.5 km/h 24.1 km/h 81% 0 mm 0.00 W/m2
00:58 9.6 °C 6.5 °C 1019.9 hPa South 19.5 km/h 24.1 km/h 81% 0 mm 0.00 W/m2
01:03 9.6 °C 6.5 °C 1019.9 hPa SSW 24.1 km/h 25.7 km/h 81% 0 mm 0.00 W/m2
01:09 9.5 °C 6.4 °C 1019.9 hPa South 20.9 km/h 22.5 km/h 81% 0 mm 0.00 W/m2
01:13 9.5 °C 6.6 °C 1019.9 hPa South 20.9 km/h 22.5 km/h 82% 0 mm 0.00 W/m2
01:19 9.4 °C 6.5 °C 1019.9 hPa South 20.9 km/h 24.1 km/h 82% 0 mm 0.00 W/m2
01:23 9.4 °C 6.5 °C 1019.9 hPa South 14.3 km/h 19.3 km/h 82% 0 mm 0.00 W/m2
01:29 9.4 °C 6.5 °C 1019.9 hPa SSW 11.1 km/h 19.3 km/h 82% 0 mm 0.00 W/m2
01:33 9.4 °C 6.5 °C 1019.9 hPa SSW 13 km/h 20.9 km/h 82% 0 mm 0.00 W/m2
01:39 9.4 °C 6.5 °C 1019.9 hPa SSW 17.7 km/h 17.7 km/h 82% 0 mm 0.00 W/m2
01:43 9.4 °C 6.5 °C 1019.9 hPa SSW 17.7 km/h 19.3 km/h 82% 0 mm 0.00 W/m2
01:49 9.3 °C 6.4 °C 1019.5 hPa SSW 14.3 km/h 19.3 km/h 82% 0 mm 0.00 W/m2
01:53 9.3 °C 6.6 °C 1019.5 hPa SSW 11.1 km/h 19.3 km/h 83% 0 mm 0.00 W/m2
01:59 9.3 °C 6.6 °C 1019.5 hPa SSW 14.3 km/h 19.3 km/h 83% 0 mm 0.00 W/m2
02:03 9.3 °C 6.6 °C 1019.5 hPa SSW 14.3 km/h 20.9 km/h 83% 0 mm 0.00 W/m2
02:07 9.3 °C 6.6 °C 1019.2 hPa SSW 14.3 km/h 16.1 km/h 83% 0 mm 0.00 W/m2
02:14 9.3 °C 6.6 °C 1019.2 hPa SSW 14.3 km/h 17.7 km/h 83% 0 mm 0.00 W/m2
02:18 9.3 °C 6.6 °C 1019.2 hPa SSW 19.5 km/h 20.9 km/h 83% 0 mm 0.00 W/m2
02:24 9.3 °C 6.6 °C 1019.2 hPa SSW 14.3 km/h 19.3 km/h 83% 0 mm 0.00 W/m2
02:28 9.3 °C 6.6 °C 1019.2 hPa SSW 19.5 km/h 22.5 km/h 83% 0 mm 0.00 W/m2
02:34 9.3 °C 6.6 °C 1019.2 hPa SSW 13 km/h 16.1 km/h 83% 0 mm 0.00 W/m2
02:38 9.2 °C 6.5 °C 1019.2 hPa SSW 13 km/h 16.1 km/h 83% 0 mm 0.00 W/m2
02:42 9.2 °C 6.6 °C 1019.2 hPa SSW 11.1 km/h 17.7 km/h 84% 0 mm 0.00 W/m2
02:49 9.2 °C 6.5 °C 1019.2 hPa SSW 13 km/h 14.5 km/h 83% 0 mm 0.00 W/m2
02:53 9.2 °C 6.6 °C 1019.2 hPa SSW 13 km/h 16.1 km/h 84% 0 mm 0.00 W/m2
02:59 9.2 °C 6.6 °C 1019.2 hPa SSW 11.1 km/h 17.7 km/h 84% 0 mm 0.00 W/m2
03:03 9.2 °C 6.6 °C 1019.2 hPa SSW 17.7 km/h 19.3 km/h 84% 0 mm 0.00 W/m2
03:09 9.2 °C 6.6 °C 1019.2 hPa SSW 16.3 km/h 16.1 km/h 84% 0 mm 0.00 W/m2
03:13 9.2 °C 6.6 °C 1019.2 hPa SSW 16.3 km/h 19.3 km/h 84% 0 mm 0.00 W/m2
03:19 9.2 °C 6.6 °C 1019.2 hPa SSW 17.7 km/h 19.3 km/h 84% 0 mm 0.00 W/m2
03:23 9.2 °C 6.6 °C 1019.2 hPa SSW 17.7 km/h 20.9 km/h 84% 0 mm 0.00 W/m2
03:29 9.3 °C 6.7 °C 1019.2 hPa SSW 11.1 km/h 20.9 km/h 84% 0 mm 0.00 W/m2
03:33 9.3 °C 6.7 °C 1019.2 hPa South 22.7 km/h 25.7 km/h 84% 0 mm 0.00 W/m2
03:37 9.3 °C 6.7 °C 1019.2 hPa SSW 14.3 km/h 19.3 km/h 84% 0 mm 0.00 W/m2
03:44 9.4 °C 6.8 °C 1019.2 hPa SSW 14.3 km/h 20.9 km/h 84% 0 mm 0.00 W/m2
03:48 9.4 °C 6.8 °C 1019.2 hPa South 20.9 km/h 20.9 km/h 84% 0 mm 0.00 W/m2
03:54 9.4 °C 6.8 °C 1019.2 hPa South 16.3 km/h 22.5 km/h 84% 0 mm 0.00 W/m2
03:58 9.4 °C 6.8 °C 1018.8 hPa SSW 16.3 km/h 19.3 km/h 84% 0 mm 0.00 W/m2
04:04 9.4 °C 6.8 °C 1019.2 hPa SSW 16.3 km/h 16.1 km/h 84% 0 mm 0.00 W/m2
04:08 9.5 °C 6.9 °C 1019.2 hPa South 11.1 km/h 14.5 km/h 84% 0 mm 0.00 W/m2
04:12 9.5 °C 6.9 °C 1019.2 hPa SSW 13 km/h 16.1 km/h 84% 0 mm 0.00 W/m2
04:18 9.5 °C 6.9 °C 1019.2 hPa South 16.3 km/h 16.1 km/h 84% 0 mm 0.00 W/m2
04:23 9.5 °C 6.9 °C 1019.2 hPa SSW 17.7 km/h 22.5 km/h 84% 0 mm 0.00 W/m2
04:29 9.6 °C 7 °C 1019.2 hPa SSW 14.3 km/h 19.3 km/h 84% 0 mm 0.00 W/m2
04:33 9.6 °C 7 °C 1019.2 hPa South 17.7 km/h 19.3 km/h 84% 0 mm 0.00 W/m2
04:39 9.6 °C 7 °C 1019.2 hPa SSW 11.1 km/h 22.5 km/h 84% 0 mm 0.00 W/m2
04:43 9.5 °C 6.9 °C 1019.2 hPa SSW 16.3 km/h 22.5 km/h 84% 0 mm 0.00 W/m2
04:49 9.6 °C 7 °C 1019.2 hPa South 17.7 km/h 20.9 km/h 84% 0 mm 0.00 W/m2
04:53 9.6 °C 6.9 °C 1019.2 hPa South 11.1 km/h 19.3 km/h 83% 0 mm 0.00 W/m2
04:59 9.6 °C 6.9 °C 1019.2 hPa South 13 km/h 22.5 km/h 83% 0 mm 0.00 W/m2
05:03 9.6 °C 6.9 °C 1019.2 hPa South 11.1 km/h 24.1 km/h 83% 0 mm 0.00 W/m2
05:08 9.6 °C 6.9 °C 1019.2 hPa South 14.3 km/h 20.9 km/h 83% 0 mm 0.00 W/m2
05:14 9.6 °C 6.9 °C 1019.2 hPa South 16.3 km/h 19.3 km/h 83% 0 mm 0.00 W/m2
05:18 9.6 °C 6.9 °C 1019.2 hPa South 17.7 km/h 17.7 km/h 83% 0 mm 0.00 W/m2
05:24 9.6 °C 6.9 °C 1019.2 hPa SSE 17.7 km/h 20.9 km/h 83% 0 mm 0.00 W/m2
05:28 9.6 °C 6.9 °C 1019.2 hPa South 13 km/h 20.9 km/h 83% 0 mm 0.00 W/m2
05:34 9.7 °C 7 °C 1019.5 hPa South 17.7 km/h 19.3 km/h 83% 0 mm 0.00 W/m2
05:38 9.7 °C 7 °C 1019.5 hPa South 14.3 km/h 16.1 km/h 83% 0 mm 0.00 W/m2
05:44 9.7 °C 7 °C 1019.5 hPa South 11.1 km/h 16.1 km/h 83% 0 mm 0.00 W/m2
05:48 9.7 °C 7 °C 1019.5 hPa South 9.7 km/h 16.1 km/h 83% 0 mm 0.00 W/m2
05:54 9.7 °C 7 °C 1019.5 hPa South 13 km/h 14.5 km/h 83% 0 mm 0.00 W/m2
05:58 9.7 °C 7 °C 1019.5 hPa South 16.3 km/h 19.3 km/h 83% 0 mm 0.00 W/m2
06:04 9.7 °C 7 °C 1019.5 hPa South 9.7 km/h 16.1 km/h 83% 0 mm 0.00 W/m2
06:08 9.7 °C 6.8 °C 1019.5 hPa South 13 km/h 17.7 km/h 82% 0 mm 0.00 W/m2
06:12 9.7 °C 6.8 °C 1019.5 hPa South 20.9 km/h 20.9 km/h 82% 0 mm 0.00 W/m2
06:19 9.8 °C 7.1 °C 1019.5 hPa South 9.7 km/h 14.5 km/h 83% 0 mm 0.00 W/m2
06:23 9.7 °C 7 °C 1019.5 hPa South 6.4 km/h 14.5 km/h 83% 0 mm 0.00 W/m2
06:28 9.7 °C 7 °C 1019.5 hPa South 14.3 km/h 17.7 km/h 83% 0 mm 0.00 W/m2
06:34 9.7 °C 6.8 °C 1019.5 hPa South 17.7 km/h 22.5 km/h 82% 0 mm 0.00 W/m2
06:38 9.7 °C 6.8 °C 1019.5 hPa South 16.3 km/h 19.3 km/h 82% 0 mm 0.00 W/m2
06:44 9.7 °C 6.8 °C 1019.5 hPa South 17.7 km/h 19.3 km/h 82% 0 mm 0.00 W/m2
06:48 9.7 °C 6.8 °C 1019.5 hPa South 17.7 km/h 17.7 km/h 82% 0 mm 0.00 W/m2
06:54 9.7 °C 6.8 °C 1019.5 hPa SSE 16.3 km/h 19.3 km/h 82% 0 mm 0.00 W/m2
06:58 9.6 °C 6.7 °C 1019.9 hPa SSE 11.1 km/h 16.1 km/h 82% 0 mm 0.00 W/m2
07:04 9.6 °C 6.7 °C 1019.9 hPa SSE 11.1 km/h 14.5 km/h 82% 0 mm 0.00 W/m2
07:09 9.6 °C 6.7 °C 1019.9 hPa South 11.1 km/h 17.7 km/h 82% 0 mm 0.00 W/m2
07:13 9.6 °C 6.7 °C 1019.9 hPa South 11.1 km/h 17.7 km/h 82% 0 mm 0.00 W/m2
07:19 9.6 °C 6.7 °C 1019.9 hPa South 17.7 km/h 19.3 km/h 82% 0 mm 0.00 W/m2
07:23 9.6 °C 6.5 °C 1020.2 hPa South 14.3 km/h 16.1 km/h 81% 0 mm 7.00 W/m2
07:29 9.6 °C 6.5 °C 1020.2 hPa SSE 14.3 km/h 17.7 km/h 81% 0 mm 9.00 W/m2
07:33 9.6 °C 6.5 °C 1020.2 hPa SSE 14.3 km/h 16.1 km/h 81% 0 mm 12.00 W/m2
07:39 9.7 °C 6.6 °C 1020.5 hPa SSE 7.9 km/h 14.5 km/h 81% 0 mm 16.00 W/m2
07:43 9.7 °C 6.6 °C 1020.5 hPa SSE 13 km/h 16.1 km/h 81% 0 mm 21.00 W/m2
07:49 9.8 °C 6.7 °C 1020.5 hPa SSE 14.3 km/h 14.5 km/h 81% 0 mm 33.00 W/m2
07:54 9.8 °C 6.7 °C 1020.5 hPa SSE 7.9 km/h 14.5 km/h 81% 0 mm 35.00 W/m2
07:58 9.8 °C 6.7 °C 1020.5 hPa SSE 7.9 km/h 11.3 km/h 81% 0 mm 33.00 W/m2
08:04 9.9 °C 6.6 °C 1020.5 hPa SSE 11.1 km/h 14.5 km/h 80% 0 mm 28.00 W/m2
08:08 9.9 °C 6.8 °C 1020.9 hPa South 7.9 km/h 16.1 km/h 81% 0 mm 26.00 W/m2
08:13 9.9 °C 7 °C 1020.9 hPa South 9.7 km/h 14.5 km/h 82% 0 mm 30.00 W/m2
08:19 9.9 °C 7 °C 1020.9 hPa South 13 km/h 14.5 km/h 82% 0 mm 30.00 W/m2
08:23 9.9 °C 7 °C 1020.9 hPa South 16.3 km/h 16.1 km/h 82% 0 mm 33.00 W/m2
08:29 9.9 °C 7.1 °C 1020.9 hPa South 11.1 km/h 14.5 km/h 83% 0 mm 37.00 W/m2
08:33 9.9 °C 7.1 °C 1020.9 hPa South 13 km/h 17.7 km/h 83% 0 mm 42.00 W/m2
08:39 9.9 °C 7.1 °C 1020.9 hPa South 14.3 km/h 16.1 km/h 83% 0 mm 47.00 W/m2
08:43 9.8 °C 7.1 °C 1020.9 hPa South 14.3 km/h 17.7 km/h 83% 0 mm 62.00 W/m2
08:49 9.8 °C 7.2 °C 1021.2 hPa South 16.3 km/h 17.7 km/h 84% 0 mm 63.00 W/m2
08:53 9.7 °C 7.1 °C 1021.2 hPa South 13 km/h 16.1 km/h 84% 0 mm 63.00 W/m2
08:57 9.8 °C 7.4 °C 1021.2 hPa South 16.3 km/h 19.3 km/h 85% 0 mm 63.00 W/m2
09:04 9.7 °C 7.3 °C 1021.2 hPa South 20.9 km/h 20.9 km/h 85% 0 mm 62.00 W/m2
09:08 9.6 °C 7.4 °C 1021.2 hPa South 17.7 km/h 17.7 km/h 86% 0 mm 62.00 W/m2
09:14 9.3 °C 7.1 °C 1021.2 hPa South 14.3 km/h 20.9 km/h 86% 0 mm 62.00 W/m2
09:18 9.3 °C 7.1 °C 1021.2 hPa South 13 km/h 17.7 km/h 86% 0 mm 60.00 W/m2
09:24 9.2 °C 7 °C 1021.6 hPa South 17.7 km/h 20.9 km/h 86% 0 mm 60.00 W/m2
09:28 9.2 °C 7.1 °C 1021.6 hPa South 24.1 km/h 24.1 km/h 87% 0 mm 63.00 W/m2
09:34 9.1 °C 7.1 °C 1021.6 hPa South 17.7 km/h 20.9 km/h 87% 0 mm 77.00 W/m2
09:38 9.1 °C 7.2 °C 1021.6 hPa South 19.5 km/h 20.9 km/h 88% 0 mm 62.00 W/m2
09:44 8.9 °C 7.2 °C 1021.6 hPa SSW 14.3 km/h 19.3 km/h 89% 0 mm 79.00 W/m2
09:48 8.9 °C 7.2 °C 1021.6 hPa SSW 16.3 km/h 20.9 km/h 89% 0 mm 102.00 W/m2
09:52 8.9 °C 7.3 °C 1021.6 hPa SSW 13 km/h 19.3 km/h 90% 0 mm 95.00 W/m2
09:58 8.9 °C 7.3 °C 1021.6 hPa SSW 17.7 km/h 19.3 km/h 90% 0 mm 100.00 W/m2
10:02 8.9 °C 7.3 °C 1021.6 hPa SSW 11.1 km/h 19.3 km/h 90% 0 mm 113.00 W/m2
10:09 9 °C 7.6 °C 1021.6 hPa SSW 13 km/h 19.3 km/h 91% 0 mm 107.00 W/m2
10:13 8.9 °C 7.5 °C 1021.6 hPa SSW 16.3 km/h 17.7 km/h 91% 0 mm 125.00 W/m2
10:15 8.9 °C 7.5 °C 1021.6 hPa SSW 13 km/h 17.7 km/h 91% 0 mm 127.00 W/m2
10:23 9.1 °C 7.7 °C 1021.9 hPa SSW 16.3 km/h 17.7 km/h 91% 0 mm 134.00 W/m2
10:27 9.2 °C 7.6 °C 1021.9 hPa SSW 17.7 km/h 17.7 km/h 90% 0 mm 142.00 W/m2
10:33 9.2 °C 7.6 °C 1021.9 hPa SSW 13 km/h 19.3 km/h 90% 0 mm 151.00 W/m2
10:37 9.2 °C 7.6 °C 1021.9 hPa SSW 19.5 km/h 20.9 km/h 90% 0 mm 163.00 W/m2
10:43 9.3 °C 7.9 °C 1021.9 hPa SSW 13 km/h 20.9 km/h 91% 0 mm 185.00 W/m2
10:47 9.2 °C 7.8 °C 1021.9 hPa SSW 14.3 km/h 19.3 km/h 91% 0 mm 179.00 W/m2
10:53 9.3 °C 7.9 °C 1021.9 hPa SSW 19.5 km/h 19.3 km/h 91% 0 mm 199.00 W/m2
10:57 9.3 °C 8.1 °C 1021.9 hPa SSW 11.1 km/h 17.7 km/h 92% 0 mm 223.00 W/m2
11:04 9.4 °C 8.2 °C 1021.9 hPa SSW 17.7 km/h 20.9 km/h 92% 0 mm 190.00 W/m2
11:08 9.3 °C 7.9 °C 1021.9 hPa SSW 13 km/h 17.7 km/h 91% 0 mm 183.00 W/m2
11:14 9.6 °C 8.4 °C 1021.6 hPa SSW 17.7 km/h 17.7 km/h 92% 0 mm 171.00 W/m2
11:18 9.4 °C 8 °C 1021.6 hPa SSW 11.1 km/h 20.9 km/h 91% 0 mm 206.00 W/m2
11:24 9.3 °C 7.9 °C 1021.6 hPa SSW 13 km/h 20.9 km/h 91% 0 mm 221.00 W/m2
11:28 9.4 °C 8.2 °C 1021.6 hPa SSW 14.3 km/h 19.3 km/h 92% 0 mm 255.00 W/m2
11:34 9.3 °C 7.9 °C 1021.6 hPa SSW 16.3 km/h 19.3 km/h 91% 0 mm 220.00 W/m2
11:38 9.3 °C 7.9 °C 1021.6 hPa SSW 17.7 km/h 20.9 km/h 91% 0 mm 232.00 W/m2
11:44 9.3 °C 7.7 °C 1021.6 hPa SSW 14.3 km/h 20.9 km/h 90% 0 mm 209.00 W/m2
11:48 9.6 °C 7.7 °C 1021.6 hPa SSW 17.7 km/h 24.1 km/h 88% 0 mm 213.00 W/m2
11:52 9.7 °C 7.5 °C 1021.6 hPa SSW 17.7 km/h 22.5 km/h 86% 0 mm 230.00 W/m2
11:59 9.8 °C 7.4 °C 1021.6 hPa SSW 17.7 km/h 22.5 km/h 85% 0 mm 243.00 W/m2
12:03 9.8 °C 7.2 °C 1021.6 hPa SSW 17.7 km/h 22.5 km/h 84% 0 mm 213.00 W/m2
12:09 9.9 °C 7.3 °C 1021.2 hPa SSW 16.3 km/h 19.3 km/h 84% 0 mm 272.00 W/m2
12:13 10 °C 7.2 °C 1021.2 hPa SSW 19.5 km/h 20.9 km/h 83% 0 mm 264.00 W/m2
12:19 10.1 °C 7.2 °C 1021.2 hPa SSW 14.3 km/h 20.9 km/h 82% 0 mm 241.00 W/m2
12:23 10.2 °C 7.3 °C 1021.2 hPa SSW 19.5 km/h 20.9 km/h 82% 0 mm 236.00 W/m2
12:29 10.3 °C 7.4 °C 1021.2 hPa SSW 16.3 km/h 19.3 km/h 82% 0 mm 424.00 W/m2
12:33 10.9 °C 7.8 °C 1021.2 hPa SSW 17.7 km/h 24.1 km/h 81% 0 mm 793.00 W/m2
12:39 11.1 °C 7.8 °C 1020.9 hPa SSW 19.5 km/h 24.1 km/h 80% 0 mm 640.00 W/m2
12:43 10.9 °C 7.6 °C 1021.2 hPa SSW 19.5 km/h 20.9 km/h 80% 0 mm 436.00 W/m2
12:49 11.3 °C 7.8 °C 1020.9 hPa SSW 16.3 km/h 24.1 km/h 79% 0 mm 874.00 W/m2
12:53 11.4 °C 7.7 °C 1020.9 hPa SSW 19.5 km/h 22.5 km/h 78% 0 mm 661.00 W/m2
12:58 11.6 °C 8.1 °C 1020.9 hPa SSW 16.3 km/h 24.1 km/h 79% 0 mm 661.00 W/m2
13:04 11.9 °C 8.2 °C 1020.5 hPa SSW 17.7 km/h 19.3 km/h 78% 0 mm 958.00 W/m2
13:08 12.2 °C 8.1 °C 1020.5 hPa SSW 11.1 km/h 16.1 km/h 76% 0 mm 882.00 W/m2
13:14 12.3 °C 8 °C 1020.5 hPa SSW 14.3 km/h 19.3 km/h 75% 0 mm 780.00 W/m2
13:18 12.4 °C 7.9 °C 1020.5 hPa SSW 11.1 km/h 20.9 km/h 74% 0 mm 735.00 W/m2
13:24 12.6 °C 8.1 °C 1020.2 hPa SSW 14.3 km/h 20.9 km/h 74% 0 mm 770.00 W/m2
13:28 13 °C 8.1 °C 1020.2 hPa SSW 17.7 km/h 22.5 km/h 72% 0 mm 708.00 W/m2
13:34 13.2 °C 8.1 °C 1019.9 hPa SSW 17.7 km/h 19.3 km/h 71% 0 mm 754.00 W/m2
13:38 13.4 °C 8 °C 1019.9 hPa SSW 17.7 km/h 22.5 km/h 70% 0 mm 858.00 W/m2
13:43 13.7 °C 7.9 °C 1019.9 hPa SSW 14.3 km/h 20.9 km/h 68% 0 mm 747.00 W/m2
13:49 13.8 °C 8 °C 1019.5 hPa SSW 16.3 km/h 17.7 km/h 68% 0 mm 712.00 W/m2
13:53 14.1 °C 7.8 °C 1019.5 hPa SSW 14.3 km/h 20.9 km/h 66% 0 mm 722.00 W/m2
13:59 14.6 °C 7.9 °C 1019.5 hPa SSW 14.3 km/h 20.9 km/h 64% 0 mm 724.00 W/m2
14:03 14.7 °C 7.5 °C 1019.5 hPa SSW 7.9 km/h 17.7 km/h 62% 0 mm 747.00 W/m2
14:09 15 °C 7.8 °C 1019.5 hPa SSW 14.3 km/h 24.1 km/h 62% 0 mm 828.00 W/m2
14:13 15.2 °C 7.5 °C 1019.5 hPa SSW 13 km/h 22.5 km/h 60% 0 mm 882.00 W/m2
14:18 15.1 °C 6.9 °C 1019.2 hPa SSW 7.9 km/h 17.7 km/h 58% 0 mm 367.00 W/m2
14:24 15.4 °C 7.2 °C 1019.2 hPa South 20.9 km/h 25.7 km/h 58% 0 mm 846.00 W/m2
14:28 15.4 °C 7.2 °C 1019.2 hPa SSW 24.1 km/h 27.4 km/h 58% 0 mm 656.00 W/m2
14:34 15.3 °C 7.1 °C 1019.2 hPa SSW 14.3 km/h 22.5 km/h 58% 0 mm 715.00 W/m2
14:38 15.6 °C 6.9 °C 1019.2 hPa South 14.3 km/h 22.5 km/h 56% 0 mm 668.00 W/m2
14:44 15.4 °C 6.4 °C 1019.2 hPa South 24.1 km/h 24.1 km/h 55% 0 mm 638.00 W/m2
14:48 15.3 °C 6.6 °C 1019.2 hPa SSW 14.3 km/h 25.7 km/h 56% 0 mm 652.00 W/m2
14:54 15.7 °C 6.4 °C 1019.2 hPa South 17.7 km/h 25.7 km/h 54% 0 mm 670.00 W/m2
14:58 15.5 °C 6.2 °C 1019.2 hPa South 19.5 km/h 25.7 km/h 54% 0 mm 339.00 W/m2
15:04 15.4 °C 6.4 °C 1019.2 hPa SSW 24.1 km/h 29 km/h 55% 0 mm 626.00 W/m2
15:08 15.2 °C 6.5 °C 1019.2 hPa SSW 14.3 km/h 24.1 km/h 56% 0 mm 578.00 W/m2
15:14 15.6 °C 6.6 °C 1019.2 hPa SSW 20.9 km/h 25.7 km/h 55% 0 mm 591.00 W/m2
15:18 15.7 °C 6.7 °C 1019.2 hPa SSW 25.9 km/h 27.4 km/h 55% 0 mm 563.00 W/m2
15:24 15.6 °C 6.9 °C 1019.2 hPa South 19.5 km/h 27.4 km/h 56% 0 mm 543.00 W/m2
15:28 15.5 °C 6.5 °C 1019.2 hPa SSW 16.3 km/h 25.7 km/h 55% 0 mm 541.00 W/m2
15:34 15.3 °C 6 °C 1019.2 hPa SSW 22.7 km/h 27.4 km/h 54% 0 mm 508.00 W/m2
15:38 15.6 °C 6.3 °C 1019.2 hPa South 16.3 km/h 29 km/h 54% 0 mm 504.00 W/m2
15:44 15.8 °C 6.2 °C 1019.2 hPa South 20.9 km/h 22.5 km/h 53% 0 mm 490.00 W/m2
15:48 15.7 °C 5.9 °C 1019.2 hPa South 20.9 km/h 25.7 km/h 52% 0 mm 476.00 W/m2
15:52 15.6 °C 5.8 °C 1019.2 hPa South 11.1 km/h 20.9 km/h 52% 0 mm 469.00 W/m2
15:59 15.6 °C 5.8 °C 1019.2 hPa SSE 24.1 km/h 27.4 km/h 52% 0 mm 330.00 W/m2
16:01 15.4 °C 5.6 °C 1019.2 hPa South 9.7 km/h 20.9 km/h 52% 0 mm 445.00 W/m2
16:09 15.2 °C 5.7 °C 1019.2 hPa SSE 13 km/h 19.3 km/h 53% 0 mm 144.00 W/m2
16:13 15.3 °C 6 °C 1019.2 hPa SSE 14.3 km/h 22.5 km/h 54% 0 mm 466.00 W/m2
16:19 15.3 °C 5.8 °C 1019.2 hPa SSW 14.3 km/h 24.1 km/h 53% 0 mm 410.00 W/m2
16:23 15.3 °C 5.8 °C 1019.2 hPa SSW 22.7 km/h 22.5 km/h 53% 0 mm 364.00 W/m2
16:29 14.8 °C 5.3 °C 1019.5 hPa South 16.3 km/h 19.3 km/h 53% 0 mm 151.00 W/m2
16:33 14.9 °C 5.9 °C 1019.5 hPa South 22.7 km/h 29 km/h 55% 0 mm 352.00 W/m2
16:39 14.8 °C 5.6 °C 1019.5 hPa SSW 22.7 km/h 25.7 km/h 54% 0 mm 51.00 W/m2
16:43 14.8 °C 5.6 °C 1019.5 hPa SSW 24.1 km/h 25.7 km/h 54% 0 mm 308.00 W/m2
16:49 14.7 °C 5.5 °C 1019.5 hPa SSE 16.3 km/h 27.4 km/h 54% 0 mm 51.00 W/m2
16:53 14.6 °C 5.4 °C 1019.5 hPa South 16.3 km/h 25.7 km/h 54% 0 mm 279.00 W/m2
16:59 14.8 °C 5 °C 1019.5 hPa South 20.9 km/h 22.5 km/h 52% 0 mm 257.00 W/m2
17:03 14.7 °C 5.2 °C 1019.5 hPa South 14.3 km/h 20.9 km/h 53% 0 mm 241.00 W/m2
17:09 14.8 °C 5.6 °C 1019.5 hPa South 17.7 km/h 24.1 km/h 54% 0 mm 227.00 W/m2
17:13 14.8 °C 5.3 °C 1019.5 hPa South 14.3 km/h 24.1 km/h 53% 0 mm 209.00 W/m2
17:18 14.7 °C 4.9 °C 1019.5 hPa South 14.3 km/h 22.5 km/h 52% 0 mm 192.00 W/m2
17:24 14.8 °C 5 °C 1019.9 hPa SSW 16.3 km/h 20.9 km/h 52% 0 mm 167.00 W/m2
17:28 14.6 °C 5.1 °C 1019.9 hPa South 22.7 km/h 25.7 km/h 53% 0 mm 149.00 W/m2
17:34 14.4 °C 5.2 °C 1019.9 hPa South 17.7 km/h 20.9 km/h 54% 0 mm 127.00 W/m2
17:38 14.4 °C 5.2 °C 1019.9 hPa South 20.9 km/h 22.5 km/h 54% 0 mm 109.00 W/m2
17:44 14.4 °C 4.9 °C 1019.9 hPa SSE 14.3 km/h 17.7 km/h 53% 0 mm 88.00 W/m2
17:48 14.4 °C 4.9 °C 1019.9 hPa SSE 11.1 km/h 22.5 km/h 53% 0 mm 76.00 W/m2
17:54 14.3 °C 4.8 °C 1019.9 hPa SSW 22.7 km/h 22.5 km/h 53% 0 mm 56.00 W/m2
17:58 14.3 °C 4.8 °C 1019.9 hPa South 14.3 km/h 17.7 km/h 53% 0 mm 46.00 W/m2
18:04 14.2 °C 4.5 °C 1020.2 hPa South 20.9 km/h 20.9 km/h 52% 0 mm 30.00 W/m2
18:08 14.2 °C 4.5 °C 1020.2 hPa SSW 14.3 km/h 19.3 km/h 52% 0 mm 19.00 W/m2
18:12 14.2 °C 4.5 °C 1020.2 hPa South 14.3 km/h 19.3 km/h 52% 0 mm 12.00 W/m2
18:18 14 °C 4.6 °C 1020.2 hPa SSW 17.7 km/h 20.9 km/h 53% 0 mm 9.00 W/m2
18:22 13.9 °C 4.5 °C 1020.2 hPa South 13 km/h 16.1 km/h 53% 0 mm 7.00 W/m2
18:28 13.7 °C 4.3 °C 1020.2 hPa South 16.3 km/h 20.9 km/h 53% 0 mm 5.00 W/m2
18:32 13.6 °C 4.2 °C 1020.2 hPa SSW 16.3 km/h 17.7 km/h 53% 0 mm 0.00 W/m2
18:39 13.5 °C 4.4 °C 1020.5 hPa SSW 16.3 km/h 16.1 km/h 54% 0 mm 0.00 W/m2
18:43 13.4 °C 4.3 °C 1020.5 hPa South 16.3 km/h 19.3 km/h 54% 0 mm 0.00 W/m2
18:49 13.3 °C 4.2 °C 1020.5 hPa South 13 km/h 17.7 km/h 54% 0 mm 0.00 W/m2
18:53 13.3 °C 4.2 °C 1020.5 hPa South 13 km/h 16.1 km/h 54% 0 mm 0.00 W/m2
18:57 13.2 °C 4.4 °C 1020.5 hPa SSW 14.3 km/h 20.9 km/h 55% 0 mm 0.00 W/m2
19:03 13.1 °C 4.3 °C 1020.5 hPa South 16.3 km/h 19.3 km/h 55% 0 mm 0.00 W/m2
19:09 12.9 °C 4.3 °C 1020.9 hPa South 11.1 km/h 16.1 km/h 56% 0 mm 0.00 W/m2
19:13 12.9 °C 4.3 °C 1020.9 hPa South 11.1 km/h 19.3 km/h 56% 0 mm 0.00 W/m2
Canyon Roadhouse, Fishriver Canyon, Namibia
Compliments of Weather Underground - 3 mb